Regional Weather Roundup
Issued by NWS

Home | Current Version | Previous Version | Graphics & Text | Print | Product List | Glossary On
Versions: 1 2 3 4 5 6 7 8 9 10 11 12 13 14 15 16 17 18 19 20 21 22 23 24 25 26 27 28 29 30 31 32 33 34 35 36 37 38 39 40 41 42 43 44 45 46 47 48 49 50
000
ASUS45 KABQ 220501
RWRNM
WEATHER ROUNDUP FOR NEW MEXICO
NATIONAL WEATHER SERVICE ALBUQUERQUE NM
1100 PM MDT TUE OCT 21 2014

NOTE: "FAIR" MEANS FEW OR NO CLOUDS BELOW 12,000 FEET AGL WITH NO
       SIGNIFICANT WEATHER OR OBSTRUCTIONS TO VISION.

      THIS PRODUCT IS RELEASED AS TWO VERSIONS.  ONE VERSION NEAR
      THE TOP OF THE HOUR CONTAINING PRELIMINARY DATA FROM ALBUQUERQUE
      AND OTHER STATIONS.  A FINAL VERSION WITH ADDITIONAL DATA IS
      ISSUED ABOUT 10 MINUTES AFTER THE HOUR.

NMZ501-503-504-510>518-220600-
NORTHWEST PLATEAU/NORTHCENTRAL MOUNTAINS

CITY           SKY/WX    TMP DP  RH WIND       PRES   REMARKS
FARMINGTON     MOCLDY    52  42  69 E7        30.07R
SANTA FE       CLOUDY    54  48  80 S13       30.15R
TAOS           MOCLDY    46  37  71 E5        30.18S
ANGEL FIRE     CLOUDY    42  39  90 SE7       30.22F

$$
NMZ402-403-502-505>509-220600-
WESTCENTRAL MOUNTAINS/SOUTHWEST MOUNTAINS

CITY           SKY/WX    TMP DP  RH WIND       PRES   REMARKS
GALLUP         CLEAR     50  44  80 CALM      30.13S
GRANTS         MOCLDY    48  45  87 CALM      30.17R
SILVER CITY    MOCLDY    54  50  87 N5        30.14R

$$
NMZ407-409-411-412-220600-
SOUTHERN DESERTS

CITY           SKY/WX    TMP DP  RH WIND       PRES   REMARKS
LORDSBURG      FAIR      55  52  88 MISG      30.05R
DEMING         CLEAR     57  53  86 NE8       30.07R
LAS CRUCES     CLEAR     60  53  79 SE6       30.08S
HOLLOMAN AFB   PTCLDY    55  52  92 N7        30.06R
T OR C         CLEAR     56  52  86 NW7       30.08S

$$
NMZ519>523-220600-
CENTRAL VALLEYS/CENTRAL HIGHLANDS

CITY           SKY/WX    TMP DP  RH WIND       PRES   REMARKS
ALBUQUERQUE    PTCLDY    57  47  69 W3        30.12R
DOUBLE EAGLE   MOCLDY    50  46  85 CALM      30.13S
MORIARTY ARPT  FAIR      49  47  92 S5        30.17R
CLINES CORNERS PTCLDY    48  46  93 S10       30.17S
BELEN          NOT AVBL
SOCORRO        MOCLDY    56  51  82 S5        30.09S

$$
NMZ524>526-539-540-220600-
SOUTHCENTRAL MOUNTAINS

CITY           SKY/WX    TMP DP  RH WIND       PRES   REMARKS
RUIDOSO        PTCLDY    48  46  93 S5        30.22R

$$
NMZ527>531-220600-
NORTHEAST HIGHLANDS/NORTHEAST PLAINS

CITY           SKY/WX    TMP DP  RH WIND       PRES   REMARKS
LAS VEGAS      CLOUDY    50  49  96 SW9       30.17S FOG
RATON          PTCLDY    49  46  90 S10       30.11S
CLAYTON        PTCLDY    55  48  77 SW13      30.07F

$$
NMZ532>537-220600-
EASTCENTRAL PLAINS

CITY           SKY/WX    TMP DP  RH WIND       PRES   REMARKS
TUCUMCARI      CLOUDY    61  55  81 SW8       30.07F
CANNON AFB     NOT AVBL
CLOVIS AIRPORT CLOUDY    59  54  82 SW8       30.14S

$$
NMZ028-029-538-220600-
SOUTHEAST PLAINS

CITY           SKY/WX    TMP DP  RH WIND       PRES   REMARKS
ROSWELL        LGT RAIN  58  56  93 S7        30.08F
CARLSBAD       MOCLDY    64  60  87 SE6       30.07S
HOBBS          CLOUDY    61  59  94 S6        30.11S


$$



USA.gov is the U.S. government's official web portal to all federal, state and local government web resources and services.